Vorticity
14 15 15 14 12 11 11 10 10 11 11 11 10 10 9 9 9 8 8 8 9 10 11 12 13 14 15 14 12 9 7 7 7 7 8 7 6 6 7 10 9 8 7 7 8 9 10 8 6 5 4 4 5 4 3 4 3 4 4 1 3 3 5 2 1 6 -8 -10 13 20 3 -6 4 5 3 -14 -24 7 1 -11 8 -5 -6 13 11 11 5 -8
10 14 15 16 15 13 12 12 12 12 12 12 12 12 11 11 10 10 9 8 7 7 7 8 9 10 12 14 14 14 12 9 7 5 7 8 7 8 6 7 9 9 9 7 7 7 9 10 8 7 6 5 5 5 3 4 3 3 4 4 6 4 3 5 2 3 -1 -18 -24 4 20 1 2 5 -0 11 16 23 27 10 -12 -14 15 27 6 -2 -1 -4
7 10 12 15 16 15 14 12 11 11 12 12 12 12 12 12 11 11 10 10 10 8 8 7 6 7 7 9 11 13 15 13 12 9 6 7 7 8 8 7 7 8 10 10 8 7 6 8 10 9 7 6 4 5 4 3 3 3 4 5 7 5 1 4 4 2 7 1 -21 -13 9 3 4 7 -4 5 16 15 27 36 -0 -43 -32 -3 1 -4 -3 -1
6 7 9 12 13 14 14 13 12 11 11 11 13 14 14 14 13 12 11 10 10 9 10 10 9 9 7 7 7 7 10 12 14 15 12 9 8 6 7 8 7 7 7 9 10 9 8 6 8 10 10 9 6 4 5 4 3 3 5 6 3 2 2 3 5 3 4 4 -8 -6 5 -0 1 11 8 -5 5 20 9 15 32 9 -20 -14 12 20 17 12
8 8 10 10 11 13 12 11 11 11 11 12 13 14 15 15 15 15 14 13 12 10 9 10 10 11 12 10 10 8 7 9 11 12 15 14 12 10 7 6 6 8 7 7 9 9 11 8 6 7 8 10 10 7 6 5 3 4 5 5 3 1 2 1 3 5 6 4 -13 -17 -4 -4 -5 8 17 -3 -8 22 11 -9 17 36 24 7 12 20 23 29
10 11 11 11 12 12 12 10 9 9 11 13 13 14 14 14 15 16 16 16 15 14 12 11 10 9 12 11 12 13 10 12 9 4 10 14 14 14 12 9 6 6 7 7 8 7 9 11 10 8 7 7 9 10 8 7 3 5 7 4 4 3 3 2 3 4 1 10 -1 -18 -18 -23 -14 1 3 2 2 10 9 10 7 2 23 11 -8 2 6 18
11 12 12 12 12 12 12 11 9 8 9 11 13 14 15 15 15 16 16 16 15 16 16 15 15 12 12 12 12 13 12 17 14 3 8 11 10 14 14 14 12 8 7 6 6 7 7 8 10 10 9 7 7 8 9 11 8 7 8 6 4 2 4 3 3 5 -1 7 12 9 3 -23 -25 -13 -19 0 20 -1 -13 32 35 -11 11 19 -6 7 6 9
13 13 12 12 12 13 12 11 10 9 8 9 11 11 13 14 14 16 15 17 17 17 18 16 17 15 14 15 13 12 12 19 16 6 13 15 8 12 13 13 15 13 11 7 5 6 6 6 8 9 11 10 8 7 6 8 11 10 8 7 6 3 5 5 2 5 2 0 2 11 25 13 1 -6 -26 -23 -4 -9 -24 9 38 -5 -14 11 2 6 9 17
15 14 12 11 12 13 13 12 11 10 10 10 10 10 9 11 12 14 14 15 17 19 22 21 22 21 18 17 15 14 15 21 16 4 14 22 14 13 14 13 14 14 15 14 10 6 5 6 6 7 9 11 10 9 7 5 8 9 9 8 7 4 2 5 5 5 4 2 -5 -12 1 15 24 24 4 -13 -14 8 7 -20 6 10 -29 -21 -5 2 18 16
15 14 12 11 12 14 13 12 11 10 11 11 11 11 10 10 9 9 10 11 12 14 16 19 22 22 22 22 16 15 17 22 21 7 9 21 18 17 18 16 14 14 15 16 16 12 8 5 5 6 5 7 9 10 10 7 8 6 7 9 8 8 6 5 5 6 5 5 4 -5 -8 -9 -1 11 9 10 3 13 28 -25 -30 19 -7 -31 -19 -8 10 -4
15 14 11 11 12 14 14 12 12 11 12 12 12 12 11 10 7 6 7 7 9 10 12 13 17 18 20 23 19 18 18 19 24 16 11 19 19 19 21 19 17 17 16 15 17 17 14 10 5 6 5 5 7 8 10 10 9 6 5 7 8 9 9 9 7 6 6 4 5 4 1 -10 -9 10 -1 -8 -10 -10 24 -1 -40 1 19 1 -8 -13 -8 -8
15 14 11 11 13 14 14 13 13 12 13 13 13 12 10 8 7 7 7 7 8 9 13 15 17 18 16 20 20 18 18 17 20 18 12 16 17 17 20 22 19 18 19 16 16 16 17 16 10 7 6 5 6 6 9 10 10 9 6 5 6 7 8 9 8 8 8 6 6 3 4 -2 -3 24 17 -19 -38 -41 -8 9 -18 -17 7 8 -10 -17 -11 -2
14 13 12 12 14 15 14 14 14 14 15 14 12 11 9 7 7 8 8 8 10 11 16 16 14 13 11 18 18 13 15 14 14 15 12 11 12 12 14 19 20 17 20 18 16 17 15 16 16 13 8 5 4 3 5 7 9 11 10 8 4 5 7 7 7 8 9 7 6 5 11 11 -2 5 19 8 -9 -16 -12 0 1 -7 -0 3 -12 -11 -3 -4
13 12 13 13 15 15 14 15 15 16 16 14 12 10 8 8 7 8 8 9 13 16 15 13 9 7 9 16 16 11 13 11 10 12 12 11 9 9 8 11 15 15 18 17 16 19 16 15 16 16 13 7 5 5 6 6 6 7 9 11 7 5 6 6 7 6 8 9 6 7 11 15 8 -6 -2 11 10 8 6 1 7 9 6 3 -3 3 5 -5
13 13 13 14 16 15 15 15 16 18 17 14 11 10 8 8 8 8 9 12 16 15 11 9 6 4 6 9 8 5 5 5 8 8 9 11 9 11 12 10 11 12 15 15 15 18 19 18 14 16 17 13 11 8 6 5 6 6 4 7 9 7 6 6 8 8 7 9 6 7 9 9 11 2 -6 5 10 10 12 5 4 11 11 4 1 4 4 2
12 14 14 15 16 15 16 15 19 19 16 13 10 8 8 7 9 9 12 15 15 10 6 5 4 4 5 6 3 1 1 -0 2 2 4 8 8 11 16 17 16 13 12 14 14 14 17 20 18 14 13 14 15 10 7 7 6 6 5 5 7 7 8 6 6 10 9 7 6 6 4 3 8 11 6 4 6 10 16 14 7 8 10 7 5 5 2 3
13 14 14 16 16 16 16 17 21 19 14 12 8 6 8 7 8 11 15 16 12 7 5 4 6 7 8 9 9 9 9 7 6 6 7 8 9 10 14 21 24 21 17 15 15 12 13 18 21 18 13 12 15 14 9 4 2 4 6 6 6 6 8 8 5 6 8 7 7 6 3 4 4 6 10 11 7 7 15 21 15 11 11 9 7 8 8 5
14 14 15 16 17 17 16 19 21 19 14 8 5 6 6 5 8 14 18 17 11 7 6 7 7 9 11 10 12 13 13 13 13 13 13 13 12 9 11 15 21 26 24 22 21 16 13 15 17 20 18 12 12 13 8 2 2 4 4 4 6 7 5 7 8 6 8 10 9 7 7 7 7 4 4 8 10 9 11 15 16 14 11 12 12 9 10 10
14 14 15 16 18 18 17 20 20 17 11 5 4 6 4 5 11 18 19 13 9 7 7 7 7 8 11 12 14 14 14 15 15 15 16 17 15 11 9 7 11 17 20 26 28 22 19 18 14 15 17 11 6 7 9 9 9 8 7 6 4 7 7 4 7 7 8 14 14 10 8 7 8 11 8 5 7 7 7 8 11 16 13 10 14 13 12 12
13 13 16 17 19 19 19 21 19 14 8 3 5 6 4 7 15 19 16 9 7 8 8 8 10 14 16 18 17 16 17 16 17 20 18 18 18 13 9 7 7 8 10 18 28 28 25 23 18 15 17 15 13 13 14 15 14 10 8 8 5 4 7 6 6 7 4 8 16 12 7 9 8 10 12 9 9 8 7 7 4 10 16 13 13 14 13 12
13 14 17 18 19 19 20 22 17 10 5 3 6 6 6 12 19 16 9 10 11 8 10 12 17 23 24 24 21 21 23 20 18 17 17 18 18 19 17 14 10 9 10 9 16 25 29 32 24 14 16 14 17 20 15 13 13 12 8 7 9 5 3 6 8 11 6 1 12 21 17 12 9 10 13 11 11 11 7 5 1 2 12 14 13 13 10 9
14 16 17 20 20 19 22 22 15 8 4 3 6 6 10 18 20 12 5 11 12 8 13 19 21 24 24 23 24 24 23 24 23 17 19 23 20 21 20 19 17 15 16 12 12 15 27 45 32 15 18 13 14 21 16 14 12 12 12 5 7 10 9 7 3 8 15 7 1 12 20 14 8 7 12 14 12 13 10 6 7 7 6 6 7 10 8 5
15 17 18 21 21 19 22 22 13 6 2 4 6 8 17 20 14 8 5 9 14 13 16 18 18 15 11 11 12 11 11 22 33 26 21 22 23 26 25 24 24 20 16 12 15 14 25 53 42 20 21 13 11 16 15 16 13 12 13 6 2 4 11 13 6 2 12 18 5 0 12 13 9 10 10 13 10 11 13 9 12 13 9 5 2 3 6 6
15 16 19 22 21 19 21 21 12 4 3 5 7 13 21 19 9 5 5 10 18 20 15 11 14 11 4 4 2 2 -1 9 32 32 19 21 25 26 27 23 15 16 15 9 19 23 32 56 45 24 25 17 11 14 16 16 13 14 12 10 6 -1 10 21 16 11 5 13 15 3 9 11 6 9 11 14 13 10 13 9 10 15 13 11 7 3 3 5
15 16 20 24 23 20 19 19 11 3 6 6 9 19 21 13 6 3 4 12 19 21 13 4 9 12 5 2 4 6 -2 -1 25 32 19 25 25 17 16 12 6 11 17 19 28 31 40 55 41 28 31 23 16 14 15 17 14 16 12 13 8 -4 19 37 30 28 10 4 15 8 8 12 10 11 6 11 15 10 11 10 9 12 14 13 10 10 7 4
15 16 22 25 25 22 17 16 9 4 7 6 13 22 17 8 6 3 3 11 19 22 14 0 7 12 0 -0 12 19 7 0 19 25 18 18 14 9 7 5 8 14 20 24 27 32 47 54 37 30 37 27 18 13 12 17 18 17 12 16 7 -21 -7 30 39 37 20 12 20 16 14 12 13 20 8 5 16 14 11 13 12 10 12 14 10 9 11 8
15 17 22 24 25 23 17 11 6 6 6 7 19 22 10 6 10 4 2 12 18 19 13 4 9 10 -0 6 21 27 14 3 12 22 24 16 10 12 7 6 12 14 21 23 24 31 39 49 32 21 44 38 14 11 10 9 17 18 10 15 19 -17 -38 -1 31 25 15 15 7 0 12 13 8 14 10 5 11 15 15 13 14 13 9 11 13 10 9 10
15 18 23 25 26 22 16 9 5 7 6 11 22 16 5 8 12 5 5 15 16 15 15 9 10 8 7 14 19 26 23 8 11 25 27 18 19 20 7 8 13 12 22 24 28 25 18 47 35 -0 40 55 15 11 14 7 17 22 11 8 22 6 -37 -23 21 17 1 9 12 12 22 24 14 8 11 16 13 11 14 14 11 13 14 11 12 12 8 9
16 20 23 26 25 20 13 7 6 8 7 15 21 10 4 11 12 7 10 16 13 13 14 10 11 8 8 13 13 26 28 8 11 27 24 18 24 18 4 11 16 17 26 21 25 17 9 55 45 -12 30 65 24 10 13 12 19 22 20 9 21 33 -14 -38 5 26 8 -3 5 19 17 17 23 11 1 11 18 12 8 12 12 8 13 18 13 10 9 9
17 21 24 25 22 18 12 5 7 8 8 18 18 8 7 12 11 9 14 15 11 13 11 9 13 8 9 13 14 29 25 5 10 20 18 18 19 12 10 17 17 22 30 20 20 18 14 51 40 -13 19 63 40 11 5 14 21 27 32 6 13 53 13 -45 -18 24 25 5 -8 1 6 9 25 21 2 -2 8 15 9 7 15 11 7 15 16 10 8 10
17 22 27 24 19 16 10 5 6 7 12 18 14 7 9 11 11 13 15 13 11 13 10 13 13 7 11 10 15 33 23 4 10 15 19 22 15 14 20 20 18 28 33 21 21 21 13 31 27 -6 12 51 42 17 6 9 18 35 33 -0 11 61 33 -32 -28 -3 4 9 1 -0 8 8 19 24 14 7 2 6 14 8 8 13 10 11 16 14 11 12
18 25 26 23 19 14 6 4 7 8 15 17 10 8 9 11 13 15 16 11 10 13 12 15 10 5 14 11 15 31 19 2 2 12 32 28 13 20 22 13 20 33 25 13 23 28 14 25 26 0 15 37 16 14 21 4 17 36 14 -5 12 49 49 6 -2 10 3 7 9 9 13 4 15 33 23 21 16 3 11 17 10 10 11 10 14 17 15 14
20 27 25 22 19 13 4 5 9 11 16 15 9 8 8 12 15 14 16 9 9 16 11 11 7 5 16 14 15 28 21 3 -3 16 38 25 13 24 15 8 26 34 14 5 25 30 18 35 28 -11 19 44 -5 0 23 -10 12 34 -7 -5 15 23 35 8 -0 25 14 3 6 14 25 1 -4 28 28 19 23 16 9 9 9 9 10 11 11 14 18 16
22 27 26 22 18 12 5 5 9 13 18 14 8 9 8 11 13 13 17 9 8 17 10 8 9 6 12 9 10 29 22 -4 -1 27 34 17 19 25 13 16 35 30 5 4 23 20 15 41 31 -17 20 59 -2 -11 19 -12 11 39 -8 -2 16 10 23 -7 -21 11 5 2 10 6 24 15 -14 -0 20 15 4 13 25 15 7 8 7 11 9 9 16 16
23 25 26 23 15 12 6 4 10 14 18 14 8 9 8 10 14 15 18 11 8 17 11 6 6 4 9 6 6 25 16 -10 8 36 29 19 19 15 13 23 37 25 -2 4 21 14 15 35 30 -5 12 48 8 -11 14 -6 9 26 -15 -6 13 9 34 11 -24 -8 -11 -7 8 -8 -2 21 13 -5 6 24 1 -15 9 15 10 13 7 7 9 8 12 14
22 23 29 25 12 11 7 4 11 15 17 14 7 8 8 12 16 14 18 14 8 17 18 8 7 8 9 8 9 22 19 4 17 33 26 21 16 14 19 19 31 24 -7 7 28 12 11 28 35 16 5 25 15 2 10 -8 7 21 -17 2 30 13 36 39 7 8 1 -6 8 4 -12 -6 13 3 -11 13 17 -6 -3 2 1 8 8 8 8 8 11 12
21 21 28 25 13 9 6 5 10 16 18 13 6 9 11 12 12 9 16 19 9 14 18 3 3 13 10 9 16 20 20 14 14 22 21 16 14 21 22 13 27 20 -14 10 36 8 -2 21 41 30 6 13 13 13 19 -11 5 35 -12 -12 26 7 11 28 22 24 14 6 19 20 5 -12 -1 19 5 -6 2 4 3 4 4 3 5 12 11 10 13 13
21 23 27 24 15 8 5 6 10 16 18 11 7 12 12 11 11 7 11 17 6 5 15 4 -1 17 16 10 17 16 16 18 12 15 20 15 13 20 22 20 25 10 -7 18 32 6 -7 16 50 37 3 9 11 13 22 -7 8 39 -14 -25 23 16 2 6 10 16 1 -2 13 9 11 7 -3 21 37 14 -1 7 6 1 7 7 6 13 11 9 13 14
21 27 28 21 16 7 2 7 11 16 17 9 8 13 11 10 11 8 7 12 4 -4 9 9 2 18 21 9 14 10 8 18 12 12 23 19 14 25 36 36 24 7 5 16 17 7 -3 14 58 44 -7 1 16 9 13 5 16 21 -22 -8 37 15 -2 6 8 21 18 5 6 3 13 24 2 -8 16 26 9 5 10 3 1 6 8 12 11 8 10 12
17 26 28 20 17 7 1 8 12 17 18 9 8 10 9 9 11 10 4 9 18 11 8 9 4 15 20 14 16 10 9 18 4 1 23 22 13 28 37 25 15 11 3 0 8 13 4 16 58 41 -10 3 20 3 7 11 9 6 -10 14 36 1 -5 15 2 9 33 31 22 14 12 30 31 -4 -6 34 36 9 5 6 3 7 9 11 11 8 9 11
18 27 27 18 14 4 2 11 12 16 19 11 7 8 8 10 14 14 4 5 26 23 10 10 7 7 13 17 20 14 14 19 4 -1 20 22 18 37 42 14 3 11 8 4 15 14 1 19 52 27 -11 17 34 12 18 13 -6 3 8 7 11 -5 -2 19 6 -3 19 33 33 19 -7 8 52 35 -7 11 36 19 6 7 6 7 10 14 13 9 9 9
20 28 27 16 12 5 4 13 14 13 15 8 4 7 7 9 14 16 7 1 13 17 11 13 11 3 5 17 25 16 7 10 16 19 21 20 26 39 41 18 -2 8 18 13 9 6 1 19 47 22 -12 13 32 20 22 4 -14 10 11 -8 2 10 6 11 10 8 11 19 30 19 -12 -7 43 59 19 1 15 14 8 13 12 6 8 13 12 9 11 8
18 28 31 18 9 4 6 16 18 13 10 4 4 8 5 6 16 20 10 -1 2 16 17 11 13 9 -0 8 20 17 10 8 11 16 22 33 37 30 28 21 -2 -3 16 11 -0 10 13 17 36 29 5 6 12 22 27 -6 -10 28 17 -9 3 8 -1 -0 16 29 14 8 22 13 -2 3 19 35 33 26 29 17 3 12 15 8 7 11 11 10 10 9
18 25 32 23 8 2 6 15 18 16 12 7 7 9 4 7 21 22 11 -1 4 23 22 6 12 17 3 3 12 13 21 22 8 6 24 42 38 23 22 15 -7 -1 23 14 -3 10 16 10 22 26 16 9 3 23 31 -12 -12 27 14 -4 1 -7 -6 5 22 35 8 -3 18 5 -4 9 1 -1 12 24 41 35 13 13 15 10 8 8 10 10 8 10
22 23 28 26 10 2 8 13 14 15 15 11 8 7 8 17 22 15 9 5 8 22 20 4 8 16 7 7 15 13 13 20 16 8 19 38 35 22 17 8 -1 9 19 4 -5 10 14 7 19 24 15 13 9 20 29 3 -8 0 -6 6 7 -9 9 16 8 21 10 3 19 2 -5 10 -5 -17 -11 -3 27 45 31 19 13 10 11 9 10 10 7 9
24 25 26 24 10 3 8 10 10 13 13 11 8 8 15 24 19 8 8 13 17 21 17 8 8 11 8 7 18 24 14 15 27 17 8 26 35 21 3 -0 9 10 6 9 10 14 18 13 20 27 16 10 10 18 29 22 4 -18 -15 16 6 -13 17 11 -10 23 26 3 14 8 -2 14 14 4 -7 -20 -3 24 29 22 11 7 10 8 7 8 9 11
20 28 29 23 10 3 8 9 8 12 12 6 7 14 19 19 16 13 10 12 18 20 16 14 14 17 17 6 6 19 15 11 27 27 15 21 33 27 4 -8 2 4 7 19 7 2 27 29 15 18 13 3 8 16 19 24 24 4 -9 -8 -24 -6 41 10 -19 33 29 -19 5 25 5 6 16 21 23 8 -3 6 24 28 15 7 10 9 7 7 9 12
17 25 28 26 13 3 7 10 8 12 13 6 8 18 16 10 15 22 15 7 7 11 17 19 17 25 30 13 4 10 4 1 19 28 20 15 20 28 19 3 -1 -1 8 12 -9 -4 35 34 12 13 9 5 17 21 14 20 30 21 2 -18 -33 4 49 5 -24 33 28 -28 -6 27 15 9 6 7 28 33 11 1 14 23 16 10 13 12 9 7 7 8
17 22 25 26 17 6 6 9 11 17 16 8 9 16 14 8 11 16 15 10 1 2 15 14 10 23 27 9 11 19 7 3 22 30 20 14 20 25 18 10 5 5 13 6 -9 10 34 24 17 15 -0 3 18 17 16 24 23 13 1 -11 -19 4 32 3 -16 24 26 -11 -3 16 13 14 10 7 22 26 14 8 9 13 16 14 13 14 10 7 8 10
18 22 25 25 15 7 7 7 13 20 15 6 9 16 14 7 8 12 13 10 3 1 10 10 8 19 18 6 15 31 22 7 12 25 21 13 21 23 9 5 12 15 10 -5 -3 29 34 15 14 10 -2 10 16 8 15 25 24 15 -5 -19 -10 11 27 11 -8 8 23 11 4 3 2 4 5 11 20 16 11 14 12 9 12 11 12 16 14 9 10 12
17 23 27 28 15 7 9 7 11 17 13 6 9 17 16 8 8 14 9 4 4 5 11 18 19 20 21 20 22 29 31 16 8 26 29 10 9 14 5 9 17 11 -0 -7 6 31 23 1 3 6 5 16 18 14 20 20 20 21 6 -6 -1 8 20 16 -8 -7 22 30 12 -1 1 4 2 3 15 19 12 9 11 11 10 9 9 11 15 15 12 11
15 20 25 29 18 8 9 7 9 15 12 6 7 15 20 12 8 13 11 3 3 6 10 18 22 17 14 16 18 19 24 22 20 27 24 12 13 11 6 13 12 -1 -2 0 2 13 14 3 6 15 15 17 22 20 17 18 21 19 17 12 -2 -7 10 15 -10 -17 12 31 25 13 5 7 13 12 13 22 19 11 11 11 11 15 11 7 13 16 13 11
Height
5744 5742 5739 5737 5735 5734 5732 5730 5729 5728 5726 5725 5724 5723 5722 5721 5721 5720 5719 5719 5719 5719 5720 5720 5721 5721 5723 5724 5725 5727 5729 5730 5732 5735 5736 5738 5741 5742 5744 5748 5750 5752 5755 5759 5762 5764 5767 5770 5773 5777 5779 5782 5784 5788 5792 5795 5797 5798 5797 5797 5798 5802 5806 5812 5816 5821 5825 5829 5834 5837 5841 5843 5846 5849 5842 5842 5846 5845 5847 5850 5853 5855 5852 5848 5843 5846 5851 5855
5742 5739 5737 5735 5733 5731 5729 5727 5725 5724 5723 5721 5720 5719 5718 5717 5716 5715 5715 5714 5714 5714 5714 5714 5714 5715 5716 5717 5718 5720 5721 5723 5725 5728 5730 5732 5734 5736 5738 5741 5744 5746 5749 5752 5755 5758 5761 5764 5768 5770 5773 5775 5778 5782 5786 5789 5791 5791 5792 5792 5793 5798 5804 5809 5814 5818 5820 5825 5830 5833 5837 5839 5843 5846 5839 5838 5843 5842 5843 5845 5848 5849 5849 5844 5840 5845 5850 5855
5739 5737 5734 5732 5730 5727 5725 5723 5721 5720 5718 5717 5716 5715 5713 5712 5711 5710 5710 5709 5708 5708 5708 5708 5708 5708 5709 5710 5711 5712 5714 5715 5717 5721 5722 5725 5727 5730 5732 5734 5737 5740 5742 5745 5748 5751 5754 5758 5761 5764 5767 5769 5772 5776 5779 5783 5785 5786 5787 5786 5788 5796 5802 5805 5809 5813 5816 5821 5827 5829 5833 5836 5839 5842 5839 5838 5839 5838 5840 5841 5842 5844 5845 5842 5839 5842 5848 5852
5736 5733 5731 5728 5725 5723 5721 5719 5717 5715 5714 5712 5711 5710 5708 5707 5706 5705 5704 5703 5703 5702 5702 5702 5702 5702 5702 5703 5704 5705 5707 5707 5710 5714 5714 5717 5720 5722 5725 5727 5730 5734 5736 5739 5742 5745 5748 5752 5755 5758 5760 5763 5767 5770 5772 5776 5779 5781 5781 5780 5786 5795 5798 5800 5804 5808 5812 5817 5822 5825 5828 5831 5834 5837 5837 5839 5838 5835 5838 5839 5841 5841 5843 5847 5841 5838 5844 5848
5733 5730 5727 5724 5721 5719 5716 5714 5712 5710 5709 5707 5706 5704 5703 5701 5700 5699 5698 5697 5697 5696 5696 5695 5695 5696 5696 5696 5697 5698 5699 5698 5702 5708 5707 5710 5713 5715 5718 5720 5723 5727 5730 5732 5735 5738 5741 5745 5748 5751 5753 5756 5760 5762 5766 5771 5775 5776 5775 5779 5785 5791 5792 5794 5800 5804 5809 5813 5815 5818 5821 5824 5828 5831 5832 5836 5836 5833 5836 5839 5841 5838 5842 5850 5841 5835 5841 5843
5730 5727 5724 5721 5717 5714 5711 5709 5706 5704 5703 5701 5700 5698 5697 5696 5694 5693 5692 5691 5691 5690 5690 5689 5689 5689 5688 5689 5689 5690 5692 5690 5695 5701 5701 5703 5704 5707 5710 5712 5716 5719 5723 5726 5728 5731 5734 5738 5740 5743 5747 5750 5753 5756 5762 5766 5769 5769 5771 5776 5781 5784 5786 5790 5795 5799 5804 5807 5809 5812 5815 5819 5822 5825 5828 5831 5833 5834 5835 5835 5839 5838 5841 5845 5837 5834 5838 5838
5727 5723 5720 5717 5714 5710 5707 5704 5702 5699 5697 5695 5693 5692 5691 5690 5689 5688 5687 5686 5685 5685 5684 5684 5683 5683 5682 5682 5682 5683 5683 5682 5688 5693 5694 5695 5696 5699 5702 5704 5708 5711 5715 5718 5721 5724 5727 5730 5733 5737 5740 5742 5747 5752 5757 5761 5763 5764 5767 5772 5776 5779 5780 5785 5791 5794 5800 5802 5804 5808 5811 5814 5816 5818 5822 5825 5827 5832 5834 5831 5833 5837 5841 5842 5834 5832 5834 5833
5723 5720 5716 5713 5710 5706 5703 5700 5697 5694 5692 5690 5687 5686 5684 5683 5683 5682 5681 5680 5680 5680 5679 5679 5678 5678 5677 5676 5675 5675 5674 5675 5682 5684 5684 5688 5690 5692 5694 5697 5700 5703 5707 5710 5714 5717 5720 5723 5727 5730 5732 5736 5741 5745 5750 5754 5755 5758 5762 5768 5773 5773 5774 5780 5785 5788 5794 5796 5799 5803 5805 5809 5812 5814 5816 5819 5822 5827 5831 5830 5829 5830 5834 5837 5832 5829 5829 5830
5719 5716 5712 5709 5705 5702 5699 5696 5693 5690 5687 5684 5682 5680 5678 5677 5676 5675 5674 5674 5674 5674 5673 5673 5673 5672 5672 5671 5670 5670 5668 5669 5674 5675 5676 5680 5682 5684 5687 5689 5692 5695 5698 5702 5706 5709 5712 5716 5720 5723 5725 5730 5734 5738 5744 5746 5748 5754 5759 5763 5767 5768 5769 5774 5779 5783 5787 5790 5794 5797 5800 5804 5807 5809 5810 5814 5821 5822 5824 5828 5826 5823 5826 5830 5829 5826 5823 5826
5716 5712 5708 5705 5701 5697 5694 5691 5688 5685 5682 5679 5677 5675 5673 5671 5670 5668 5668 5667 5667 5667 5666 5667 5666 5666 5666 5666 5666 5664 5663 5663 5667 5668 5668 5671 5674 5677 5679 5681 5684 5687 5690 5693 5698 5701 5705 5708 5712 5715 5717 5722 5726 5731 5736 5738 5744 5751 5754 5757 5760 5762 5765 5768 5772 5777 5781 5785 5790 5792 5794 5798 5800 5802 5803 5810 5820 5819 5817 5822 5822 5817 5818 5826 5829 5825 5818 5821
5712 5708 5704 5700 5697 5693 5689 5686 5683 5680 5677 5674 5672 5670 5668 5666 5665 5664 5663 5662 5661 5661 5660 5660 5660 5660 5660 5661 5661 5658 5658 5659 5660 5661 5662 5664 5666 5668 5671 5674 5676 5679 5682 5685 5689 5693 5696 5700 5704 5707 5710 5715 5720 5724 5729 5733 5740 5745 5747 5749 5752 5756 5758 5762 5767 5771 5776 5780 5784 5787 5788 5792 5793 5794 5799 5806 5811 5811 5809 5814 5818 5813 5812 5823 5829 5821 5816 5821
5708 5704 5700 5696 5692 5688 5685 5681 5678 5675 5672 5670 5668 5666 5664 5663 5661 5660 5659 5657 5656 5655 5654 5653 5653 5654 5654 5656 5656 5653 5653 5654 5654 5655 5656 5658 5659 5660 5663 5665 5668 5670 5673 5677 5680 5684 5688 5691 5695 5699 5704 5709 5713 5718 5723 5729 5734 5737 5741 5742 5746 5750 5751 5755 5761 5765 5771 5775 5779 5781 5782 5785 5786 5787 5796 5800 5801 5802 5805 5809 5813 5811 5809 5818 5825 5816 5815 5824
5704 5700 5696 5692 5688 5684 5681 5677 5674 5671 5668 5666 5664 5662 5660 5659 5658 5657 5655 5653 5651 5650 5649 5648 5648 5648 5649 5651 5650 5648 5649 5649 5649 5650 5650 5652 5654 5654 5655 5657 5660 5662 5665 5669 5672 5675 5679 5683 5687 5692 5697 5700 5704 5711 5716 5722 5727 5730 5734 5736 5739 5742 5742 5749 5756 5759 5765 5769 5773 5775 5774 5776 5779 5782 5791 5794 5797 5800 5804 5807 5807 5807 5809 5813 5817 5814 5815 5824
5699 5695 5691 5687 5683 5680 5676 5673 5670 5667 5664 5662 5660 5658 5657 5655 5654 5652 5650 5649 5647 5646 5644 5643 5643 5642 5643 5646 5645 5644 5644 5643 5645 5645 5644 5646 5647 5648 5649 5650 5652 5654 5657 5661 5664 5667 5671 5675 5678 5683 5688 5693 5699 5704 5709 5715 5719 5723 5727 5729 5731 5734 5736 5743 5750 5752 5759 5765 5768 5769 5766 5770 5776 5779 5785 5791 5795 5798 5801 5804 5803 5803 5807 5810 5811 5811 5815 5821
5695 5691 5687 5683 5679 5675 5671 5668 5665 5663 5660 5658 5656 5654 5653 5652 5650 5648 5646 5645 5643 5642 5640 5639 5638 5637 5638 5640 5640 5640 5639 5638 5640 5640 5639 5640 5641 5642 5642 5642 5644 5647 5650 5653 5656 5659 5663 5666 5670 5675 5682 5688 5693 5697 5703 5709 5712 5715 5718 5721 5724 5728 5732 5739 5744 5747 5757 5762 5760 5760 5761 5766 5774 5776 5781 5787 5791 5795 5797 5799 5801 5801 5803 5807 5808 5810 5814 5816
5691 5686 5682 5678 5674 5670 5667 5664 5661 5659 5656 5654 5652 5650 5649 5648 5646 5644 5642 5640 5639 5637 5636 5634 5633 5632 5633 5634 5634 5634 5634 5634 5634 5633 5634 5634 5634 5634 5635 5635 5637 5639 5641 5644 5647 5651 5655 5657 5662 5667 5673 5679 5683 5688 5696 5701 5705 5709 5713 5718 5720 5724 5730 5735 5737 5743 5754 5757 5752 5754 5758 5764 5771 5773 5778 5784 5787 5790 5791 5794 5798 5798 5799 5803 5805 5808 5811 5812
5686 5682 5678 5674 5670 5666 5662 5659 5657 5655 5653 5650 5648 5646 5645 5644 5642 5640 5638 5637 5635 5633 5631 5629 5627 5628 5628 5628 5628 5627 5626 5627 5628 5628 5628 5628 5627 5627 5627 5628 5629 5630 5633 5635 5638 5643 5647 5649 5653 5658 5663 5670 5675 5681 5685 5689 5696 5703 5708 5714 5716 5720 5727 5730 5731 5739 5748 5749 5747 5752 5756 5760 5766 5769 5774 5780 5783 5786 5785 5789 5794 5794 5796 5798 5801 5805 5808 5808
5682 5678 5674 5669 5665 5661 5658 5655 5653 5651 5649 5647 5645 5643 5641 5640 5639 5636 5634 5633 5632 5629 5627 5625 5623 5622 5622 5620 5621 5621 5619 5619 5620 5622 5622 5620 5619 5620 5620 5620 5621 5622 5624 5625 5629 5634 5638 5641 5644 5647 5653 5660 5666 5669 5673 5681 5693 5699 5701 5707 5712 5717 5723 5723 5727 5738 5743 5742 5744 5750 5751 5754 5760 5764 5770 5774 5778 5783 5783 5786 5790 5791 5793 5792 5796 5803 5804 5803
5679 5674 5669 5665 5661 5657 5654 5651 5650 5648 5647 5644 5642 5640 5637 5636 5635 5633 5631 5630 5628 5626 5623 5620 5619 5619 5617 5613 5613 5613 5612 5612 5612 5613 5615 5613 5612 5613 5613 5613 5613 5614 5615 5617 5620 5624 5628 5631 5632 5634 5641 5651 5659 5664 5671 5684 5694 5695 5697 5704 5710 5714 5717 5717 5724 5735 5740 5737 5738 5745 5747 5749 5754 5759 5766 5770 5773 5779 5782 5784 5784 5785 5787 5788 5792 5798 5800 5798
5675 5670 5665 5661 5657 5653 5650 5648 5646 5644 5643 5642 5639 5637 5634 5632 5631 5629 5628 5627 5624 5622 5620 5616 5613 5615 5614 5609 5606 5604 5604 5605 5605 5604 5605 5605 5604 5605 5607 5607 5606 5606 5609 5611 5612 5614 5616 5618 5620 5626 5638 5650 5658 5664 5671 5681 5687 5688 5693 5701 5705 5709 5712 5715 5722 5732 5738 5736 5733 5738 5743 5746 5750 5753 5760 5767 5770 5774 5777 5781 5780 5778 5783 5786 5790 5793 5795 5795
5672 5667 5662 5657 5653 5650 5647 5645 5643 5641 5640 5639 5637 5634 5631 5628 5627 5625 5625 5624 5620 5616 5615 5612 5608 5608 5608 5605 5603 5600 5598 5598 5598 5596 5596 5598 5597 5598 5599 5599 5599 5599 5602 5604 5604 5603 5602 5604 5611 5623 5636 5646 5653 5659 5665 5672 5677 5681 5689 5696 5700 5702 5708 5714 5721 5727 5733 5736 5734 5733 5735 5740 5747 5749 5753 5761 5767 5769 5772 5777 5778 5776 5779 5784 5788 5789 5790 5792
5668 5663 5658 5654 5650 5646 5643 5642 5640 5638 5637 5636 5633 5631 5628 5625 5624 5623 5622 5621 5617 5611 5609 5609 5605 5604 5603 5601 5599 5596 5594 5593 5591 5589 5587 5588 5590 5591 5591 5590 5591 5592 5594 5594 5595 5595 5592 5594 5608 5623 5632 5638 5644 5651 5657 5663 5669 5676 5683 5689 5694 5698 5704 5711 5718 5723 5728 5733 5734 5730 5728 5733 5742 5747 5749 5755 5763 5766 5768 5771 5773 5773 5775 5779 5783 5785 5785 5788
5665 5660 5655 5650 5646 5642 5640 5639 5637 5635 5634 5632 5630 5628 5625 5622 5621 5620 5618 5618 5615 5609 5606 5605 5602 5600 5599 5598 5596 5593 5590 5588 5586 5584 5581 5580 5582 5583 5584 5584 5584 5585 5586 5586 5586 5587 5584 5589 5606 5620 5624 5627 5634 5641 5649 5655 5662 5668 5676 5682 5689 5696 5701 5706 5713 5720 5723 5727 5730 5729 5726 5728 5735 5743 5746 5750 5757 5761 5764 5767 5768 5769 5771 5774 5779 5781 5781 5783
5661 5656 5651 5647 5643 5639 5637 5636 5634 5632 5631 5629 5626 5624 5622 5620 5618 5617 5615 5613 5611 5607 5604 5602 5599 5597 5595 5594 5593 5590 5588 5585 5582 5580 5577 5576 5577 5576 5577 5579 5578 5579 5581 5581 5579 5578 5578 5588 5602 5610 5614 5619 5627 5634 5640 5647 5653 5661 5669 5677 5686 5693 5698 5702 5710 5718 5720 5723 5727 5726 5723 5724 5729 5737 5743 5746 5750 5754 5759 5762 5763 5764 5767 5771 5774 5777 5778 5779
5658 5653 5648 5644 5640 5637 5634 5634 5632 5630 5629 5626 5623 5621 5619 5617 5615 5614 5611 5609 5606 5603 5601 5599 5596 5595 5592 5590 5589 5586 5583 5581 5578 5576 5573 5573 5573 5572 5573 5573 5573 5575 5575 5574 5572 5569 5573 5584 5593 5598 5602 5610 5618 5624 5631 5640 5647 5654 5662 5672 5682 5692 5699 5702 5707 5716 5717 5718 5723 5720 5717 5721 5725 5731 5739 5742 5745 5749 5754 5757 5759 5760 5762 5767 5771 5772 5774 5775
5655 5650 5646 5641 5638 5635 5632 5631 5630 5628 5626 5623 5620 5618 5616 5615 5613 5610 5608 5605 5603 5600 5598 5596 5594 5592 5589 5586 5585 5582 5579 5577 5574 5572 5570 5569 5569 5569 5569 5568 5569 5570 5569 5568 5565 5563 5568 5578 5582 5586 5592 5601 5609 5616 5624 5635 5642 5647 5657 5669 5679 5688 5697 5701 5704 5711 5713 5715 5719 5716 5713 5719 5724 5728 5734 5739 5740 5744 5749 5753 5755 5757 5758 5762 5767 5768 5769 5771
5653 5647 5643 5639 5636 5633 5630 5628 5627 5625 5623 5620 5618 5616 5614 5612 5610 5607 5605 5602 5599 5596 5595 5593 5590 5588 5586 5582 5580 5577 5575 5573 5571 5568 5567 5566 5566 5565 5565 5565 5565 5565 5564 5562 5559 5560 5565 5569 5572 5578 5586 5593 5601 5609 5619 5630 5636 5642 5655 5668 5676 5683 5692 5699 5702 5706 5711 5714 5716 5713 5712 5716 5722 5726 5731 5734 5736 5740 5745 5748 5751 5753 5754 5757 5763 5765 5766 5768
5650 5645 5640 5637 5633 5631 5629 5627 5625 5623 5621 5618 5615 5613 5611 5609 5607 5604 5602 5599 5596 5594 5591 5589 5587 5585 5582 5579 5576 5573 5571 5570 5567 5565 5563 5562 5562 5561 5561 5562 5561 5560 5559 5556 5555 5559 5561 5562 5567 5574 5582 5587 5595 5606 5618 5627 5632 5641 5656 5666 5672 5679 5688 5695 5700 5705 5710 5712 5710 5712 5713 5711 5715 5724 5728 5729 5731 5736 5740 5743 5747 5750 5751 5753 5758 5763 5764 5766
5647 5642 5638 5634 5632 5629 5627 5625 5623 5620 5617 5615 5613 5611 5609 5607 5604 5602 5599 5596 5593 5591 5589 5587 5584 5582 5580 5576 5573 5569 5568 5566 5564 5562 5560 5559 5558 5558 5558 5558 5557 5556 5555 5553 5553 5556 5557 5560 5567 5573 5579 5585 5593 5605 5616 5623 5630 5641 5654 5663 5670 5676 5682 5690 5697 5702 5707 5707 5704 5708 5711 5707 5709 5719 5725 5725 5726 5731 5737 5739 5743 5747 5749 5749 5754 5760 5762 5763
5645 5640 5635 5632 5630 5628 5626 5624 5621 5618 5615 5613 5611 5609 5607 5604 5602 5599 5596 5594 5591 5589 5587 5584 5582 5579 5577 5573 5570 5566 5564 5563 5560 5558 5557 5556 5555 5554 5554 5554 5553 5552 5551 5551 5551 5554 5555 5559 5565 5571 5576 5584 5593 5603 5612 5621 5630 5640 5650 5659 5666 5670 5678 5686 5692 5698 5701 5700 5700 5703 5707 5707 5707 5713 5721 5723 5724 5727 5733 5737 5739 5743 5747 5747 5750 5757 5759 5760
5642 5638 5634 5630 5628 5626 5624 5622 5619 5617 5614 5611 5609 5607 5604 5602 5599 5597 5594 5592 5590 5587 5584 5582 5580 5577 5574 5570 5567 5564 5561 5560 5558 5555 5554 5552 5552 5551 5551 5551 5550 5549 5549 5550 5551 5553 5554 5554 5559 5566 5572 5580 5592 5602 5610 5619 5629 5636 5645 5655 5660 5665 5675 5682 5686 5692 5692 5691 5696 5701 5705 5707 5704 5708 5718 5721 5723 5726 5728 5733 5736 5739 5744 5746 5747 5753 5757 5758
5640 5636 5632 5629 5626 5624 5621 5619 5617 5614 5612 5609 5607 5605 5602 5600 5598 5595 5592 5590 5588 5585 5582 5580 5577 5575 5571 5568 5565 5561 5559 5557 5555 5552 5550 5550 5549 5549 5549 5549 5548 5547 5548 5551 5553 5554 5554 5554 5557 5565 5571 5576 5586 5599 5608 5616 5625 5632 5640 5650 5655 5660 5669 5675 5680 5684 5683 5686 5695 5699 5702 5705 5703 5706 5714 5718 5723 5726 5724 5728 5733 5737 5741 5744 5745 5749 5754 5756
5639 5634 5630 5627 5625 5623 5620 5618 5616 5613 5610 5607 5605 5603 5601 5598 5596 5593 5590 5588 5586 5584 5581 5578 5576 5572 5569 5566 5563 5559 5557 5555 5552 5550 5548 5547 5547 5547 5547 5546 5546 5547 5549 5551 5552 5553 5556 5557 5558 5564 5571 5574 5579 5592 5603 5610 5618 5626 5635 5643 5647 5653 5659 5667 5673 5676 5678 5685 5694 5698 5699 5701 5703 5706 5710 5715 5721 5725 5723 5723 5730 5735 5738 5741 5743 5746 5750 5753
5637 5633 5629 5626 5624 5622 5619 5617 5614 5611 5608 5606 5604 5601 5599 5597 5595 5592 5589 5586 5584 5582 5579 5576 5574 5571 5568 5564 5561 5558 5556 5554 5551 5548 5547 5546 5545 5545 5546 5545 5544 5546 5549 5550 5551 5553 5556 5559 5561 5564 5571 5576 5580 5589 5600 5609 5616 5623 5633 5640 5645 5650 5655 5660 5665 5669 5675 5684 5690 5695 5694 5695 5701 5705 5706 5712 5719 5722 5721 5721 5727 5731 5734 5738 5741 5743 5746 5750
5636 5632 5628 5624 5622 5621 5618 5616 5613 5610 5607 5604 5602 5600 5597 5595 5593 5591 5588 5585 5583 5581 5578 5575 5573 5570 5567 5564 5561 5558 5555 5553 5550 5547 5545 5545 5545 5545 5545 5545 5545 5546 5549 5549 5551 5554 5557 5561 5565 5567 5572 5580 5585 5590 5600 5609 5616 5622 5632 5640 5644 5649 5655 5660 5665 5669 5676 5683 5686 5689 5690 5692 5700 5704 5704 5709 5714 5717 5717 5718 5723 5726 5729 5736 5739 5740 5743 5747
5635 5631 5627 5623 5621 5619 5617 5614 5611 5608 5605 5603 5601 5598 5596 5594 5591 5589 5587 5584 5582 5580 5577 5574 5571 5568 5566 5563 5560 5557 5554 5552 5550 5546 5544 5544 5544 5544 5544 5544 5545 5548 5549 5551 5552 5555 5559 5563 5567 5570 5574 5581 5588 5594 5599 5605 5613 5621 5629 5636 5642 5649 5657 5662 5666 5672 5676 5680 5681 5684 5688 5692 5696 5700 5703 5705 5709 5713 5714 5714 5719 5724 5728 5735 5738 5738 5741 5744
5633 5629 5625 5622 5620 5617 5615 5613 5610 5607 5605 5602 5599 5597 5595 5592 5590 5588 5586 5583 5580 5578 5575 5573 5570 5567 5564 5562 5559 5556 5554 5552 5550 5547 5545 5545 5544 5544 5545 5544 5546 5549 5551 5552 5554 5556 5560 5564 5567 5571 5576 5583 5589 5596 5600 5603 5611 5620 5625 5633 5642 5651 5657 5661 5665 5670 5672 5675 5678 5681 5685 5689 5693 5696 5699 5702 5705 5708 5710 5712 5717 5724 5729 5733 5735 5736 5739 5742
5632 5628 5624 5621 5618 5616 5614 5611 5608 5606 5603 5601 5598 5596 5594 5592 5589 5587 5584 5582 5580 5577 5574 5571 5568 5566 5563 5561 5558 5556 5554 5551 5550 5548 5546 5545 5544 5544 5545 5545 5547 5550 5552 5553 5555 5557 5559 5561 5566 5571 5578 5584 5588 5592 5598 5603 5609 5620 5629 5635 5640 5646 5652 5657 5661 5665 5668 5672 5676 5679 5682 5687 5692 5694 5695 5698 5702 5703 5707 5712 5717 5722 5727 5730 5733 5735 5736 5739
5631 5627 5623 5620 5618 5615 5613 5610 5607 5605 5602 5599 5598 5596 5594 5591 5588 5586 5583 5581 5579 5577 5574 5571 5567 5565 5563 5560 5558 5556 5554 5551 5550 5548 5547 5545 5545 5545 5545 5545 5548 5551 5553 5554 5556 5558 5559 5561 5564 5571 5578 5584 5587 5589 5596 5602 5607 5617 5629 5635 5639 5645 5650 5654 5658 5663 5666 5670 5673 5677 5681 5684 5688 5691 5692 5696 5700 5701 5707 5713 5716 5721 5725 5727 5731 5732 5733 5736
5630 5626 5622 5619 5617 5615 5612 5609 5607 5604 5601 5599 5597 5595 5593 5591 5588 5586 5583 5580 5578 5576 5574 5571 5567 5564 5562 5561 5559 5556 5554 5552 5550 5549 5547 5546 5545 5545 5546 5547 5549 5552 5554 5556 5557 5559 5561 5563 5565 5572 5578 5582 5585 5590 5597 5603 5607 5611 5620 5630 5636 5643 5650 5655 5658 5662 5665 5667 5671 5676 5680 5681 5684 5689 5692 5694 5696 5700 5705 5710 5715 5719 5722 5726 5729 5730 5731 5733
5629 5624 5621 5618 5616 5614 5611 5609 5606 5603 5601 5599 5596 5594 5592 5591 5588 5586 5583 5580 5577 5575 5573 5570 5567 5565 5562 5560 5559 5557 5555 5553 5551 5550 5548 5547 5546 5545 5547 5549 5550 5553 5555 5558 5560 5561 5563 5565 5568 5572 5578 5581 5586 5594 5600 5605 5609 5612 5617 5626 5634 5640 5648 5653 5656 5660 5664 5666 5670 5675 5679 5680 5681 5686 5691 5690 5691 5697 5703 5707 5713 5718 5721 5723 5725 5727 5728 5730
5628 5624 5621 5618 5616 5614 5612 5609 5605 5602 5600 5597 5595 5593 5591 5590 5587 5585 5583 5580 5578 5575 5572 5570 5567 5565 5562 5560 5559 5557 5555 5554 5552 5550 5548 5548 5546 5546 5547 5550 5552 5555 5557 5559 5562 5563 5564 5567 5570 5574 5579 5584 5589 5595 5601 5604 5609 5615 5618 5625 5632 5639 5646 5651 5655 5658 5662 5666 5670 5674 5679 5681 5680 5684 5689 5688 5689 5696 5702 5705 5710 5715 5718 5720 5722 5724 5726 5727
5628 5624 5620 5617 5615 5614 5612 5609 5605 5603 5600 5597 5595 5593 5591 5589 5587 5584 5582 5580 5578 5575 5572 5569 5567 5565 5563 5561 5559 5558 5556 5554 5552 5550 5549 5548 5547 5547 5549 5552 5554 5556 5559 5560 5562 5565 5566 5568 5571 5575 5580 5586 5590 5595 5601 5605 5608 5614 5619 5624 5631 5639 5645 5651 5654 5656 5660 5665 5669 5673 5677 5679 5679 5682 5687 5688 5688 5692 5699 5704 5708 5712 5715 5716 5718 5721 5723 5724
5628 5623 5620 5618 5615 5613 5611 5608 5606 5604 5601 5598 5596 5593 5590 5588 5586 5584 5582 5579 5577 5574 5572 5569 5567 5565 5563 5561 5560 5559 5557 5555 5553 5552 5550 5549 5549 5549 5552 5554 5556 5558 5560 5562 5563 5565 5567 5569 5572 5575 5579 5583 5587 5592 5597 5602 5606 5611 5618 5623 5630 5639 5646 5650 5653 5657 5660 5664 5669 5671 5675 5677 5678 5680 5685 5687 5687 5690 5697 5702 5704 5707 5711 5713 5715 5718 5719 5721
5628 5623 5620 5618 5615 5613 5610 5608 5606 5603 5601 5599 5596 5593 5590 5588 5585 5583 5581 5579 5576 5574 5572 5570 5568 5566 5564 5562 5560 5560 5559 5556 5554 5553 5552 5551 5551 5553 5555 5557 5558 5560 5561 5564 5565 5565 5567 5570 5572 5576 5579 5582 5586 5589 5595 5600 5606 5611 5616 5621 5629 5638 5644 5647 5651 5656 5659 5664 5670 5673 5673 5675 5677 5680 5683 5685 5687 5690 5693 5697 5701 5704 5707 5710 5712 5714 5717 5719
5629 5624 5620 5617 5615 5612 5609 5607 5604 5602 5600 5599 5596 5593 5591 5588 5586 5583 5581 5579 5577 5574 5572 5569 5568 5566 5564 5562 5560 5560 5559 5557 5555 5555 5555 5554 5554 5556 5558 5560 5561 5562 5563 5565 5566 5567 5568 5570 5574 5577 5581 5587 5591 5595 5599 5604 5609 5612 5615 5620 5627 5636 5642 5645 5649 5655 5659 5663 5668 5670 5670 5672 5675 5678 5681 5684 5688 5689 5689 5694 5699 5701 5703 5706 5709 5712 5716 5718
5628 5624 5620 5617 5614 5612 5609 5606 5604 5601 5599 5597 5596 5594 5591 5589 5586 5584 5581 5578 5576 5575 5572 5569 5567 5566 5564 5563 5561 5560 5559 5558 5556 5557 5557 5557 5557 5558 5560 5562 5563 5564 5565 5566 5567 5569 5570 5572 5575 5579 5582 5588 5594 5599 5602 5606 5612 5617 5620 5622 5627 5634 5640 5644 5648 5653 5658 5661 5664 5666 5668 5670 5672 5674 5677 5681 5686 5687 5688 5692 5696 5698 5700 5704 5707 5711 5714 5715
5627 5623 5620 5617 5615 5613 5610 5607 5604 5602 5600 5598 5596 5593 5591 5588 5586 5584 5582 5579 5577 5575 5573 5570 5568 5566 5564 5563 5562 5561 5560 5559 5558 5558 5559 5559 5560 5560 5562 5564 5566 5566 5567 5568 5569 5570 5572 5574 5577 5580 5583 5587 5592 5597 5603 5607 5612 5618 5621 5623 5626 5632 5638 5642 5646 5652 5657 5660 5660 5661 5664 5666 5669 5671 5674 5677 5681 5684 5686 5690 5693 5696 5699 5702 5705 5709 5711 5712
5627 5622 5619 5616 5614 5612 5610 5608 5606 5604 5601 5598 5595 5592 5590 5588 5586 5584 5583 5580 5578 5576 5573 5571 5569 5567 5565 5563 5562 5561 5561 5560 5560 5560 5560 5561 5561 5563 5565 5566 5568 5568 5568 5569 5569 5571 5574 5576 5579 5582 5585 5588 5591 5595 5601 5606 5610 5616 5620 5622 5626 5631 5636 5641 5645 5650 5654 5656 5657 5659 5662 5665 5668 5670 5673 5676 5679 5682 5684 5687 5690 5694 5697 5699 5703 5706 5708 5710
5627 5623 5619 5616 5614 5612 5610 5608 5606 5604 5601 5598 5596 5593 5591 5589 5587 5585 5583 5581 5579 5577 5574 5572 5569 5567 5565 5563 5562 5561 5561 5561 5560 5560 5562 5563 5563 5564 5566 5567 5569 5569 5569 5570 5571 5573 5576 5578 5581 5584 5586 5589 5591 5594 5600 5606 5610 5615 5619 5622 5626 5630 5635 5639 5642 5646 5650 5653 5655 5658 5661 5664 5667 5669 5672 5674 5677 5680 5683 5685 5688 5692 5695 5698 5701 5704 5707 5710
5627 5624 5620 5616 5614 5612 5610 5608 5605 5603 5601 5599 5597 5594 5592 5590 5588 5586 5584 5582 5580 5577 5575 5572 5570 5568 5566 5565 5563 5562 5561 5561 5561 5561 5563 5565 5565 5565 5566 5567 5569 5570 5571 5572 5574 5576 5578 5580 5583 5585 5587 5590 5592 5595 5599 5606 5611 5615 5618 5622 5625 5628 5633 5638 5641 5644 5648 5651 5655 5658 5660 5663 5666 5668 5671 5673 5675 5678 5681 5684 5687 5690 5693 5696 5699 5702 5705 5708
5627 5623 5619 5616 5614 5612 5610 5608 5605 5603 5601 5599 5597 5595 5593 5591 5589 5587 5585 5583 5581 5578 5575 5573 5571 5569 5567 5566 5565 5563 5562 5562 5562 5562 5563 5565 5567 5567 5567 5569 5570 5571 5572 5574 5575 5578 5580 5581 5583 5586 5588 5591 5593 5596 5601 5606 5610 5612 5616 5620 5624 5628 5632 5637 5640 5643 5646 5649 5654 5657 5659 5661 5664 5666 5669 5671 5673 5676 5678 5682 5685 5688 5691 5695 5697 5700 5703 5706